Flag for Turkey Weather past 2 weeks in Mersin, Turkey

Now
82 °F

Scattered clouds.


Feels Like: 85 °F
Forecast: 78 / 92 °F
Wind: 8 mph from Southwest

Location: Adana / Sakirpasa

Current Time: Aug 20, 2014 at 8:03:56 PM

Latest Report: Aug 20, 2014 at 7:20 PM


Visibility: N/A

Pressure: 29.86 "Hg

Humidity: 62%

Dew point: 68 °F

Location of MersinLocation

Historic Weather in Mersin — Graph

°F

Mersin temperature yesterday

Maximum temperature yesterday: 91 °F (at 1:50 PM)
Minimum temperature yesterday: 77 °F (at 1:20 AM)
Average temperature yesterday: 83 °F

Past Weeks' High & Low Weather Summary

 TemperatureHumidityPressure
High95 °F (Aug 13, 12:50 PM)94% (Aug 6, 1:50 AM)29.89 "Hg (Aug 6, 1:50 AM)
Low70 °F (Aug 6, 1:50 AM)40% (Aug 6, 11:50 AM)29.53 "Hg (Aug 17, 2:20 PM)
Average83 °F71%29.71 "Hg
* Reported Aug 5 6:20 PM — Aug 20 6:50 PM, Mersin, Weather by CustomWeather, © 2014

Note: Actual official high and low records may vary slightly from our data, if they occured in-between our weather recording intervals... More about our weather records

Advertising

Mersin weather history for previous 24 hours

 ConditionsComfort  
Time TempWeatherWind HumidityBarometerVisibility
6:50 PM
Aug 20
84 °FScattered clouds.10 mph58%29.86 "HgN/A
6:20 PM84 °FScattered clouds.12 mph55%29.86 "HgN/A
5:50 PM86 °FScattered clouds.12 mph52%29.86 "HgN/A
5:20 PM88 °FScattered clouds.13 mph49%29.86 "HgN/A
4:50 PM90 °FScattered clouds.12 mph43%29.86 "HgN/A
4:20 PM90 °FScattered clouds.13 mph43%29.86 "HgN/A
3:50 PM90 °FScattered clouds.14 mph43%29.86 "HgN/A
3:20 PM90 °FScattered clouds.12 mph41%29.86 "HgN/A
2:50 PM90 °FScattered clouds.10 mph41%29.86 "HgN/A
2:20 PM90 °FScattered clouds.9 mph41%29.86 "HgN/A
1:50 PM90 °FScattered clouds.8 mph43%29.86 "HgN/A
1:20 PM90 °FScattered clouds.8 mph41%29.86 "HgN/A
12:50 PM90 °FScattered clouds.7 mph43%29.89 "HgN/A
12:20 PM88 °FScattered clouds.7 mph46%29.89 "HgN/A
11:50 AM88 °FScattered clouds.5 mph49%29.89 "HgN/A
11:20 AM86 °FScattered clouds.6 mph52%29.89 "HgN/A
10:50 AM86 °FScattered clouds.3 mph49%29.89 "HgN/A
10:20 AM86 °FPartly sunny.6 mph49%29.89 "HgN/A
9:50 AM84 °FPartly sunny.6 mph51%29.89 "HgN/A
9:20 AM84 °FPartly sunny.7 mph51%29.89 "HgN/A
8:50 AM82 °FPartly sunny.8 mph58%29.89 "HgN/A
8:20 AM81 °FPartly sunny.5 mph66%29.89 "HgN/A
7:50 AM81 °FPartly sunny.3 mph66%29.89 "HgN/A
7:20 AM79 °FPartly sunny.3 mph70%29.89 "HgN/A
6:50 AM77 °FFog.2 mph79%29.86 "Hg3 mi
6:20 AM77 °FFog.1 mph74%29.86 "Hg3 mi
5:50 AM77 °FFog.3 mph79%29.86 "Hg3 mi
5:20 AM75 °FFog.No wind83%29.86 "Hg3 mi
4:50 AM77 °FFog.3 mph79%29.86 "Hg3 mi
4:20 AM79 °FFog.3 mph74%29.86 "Hg3 mi
3:50 AM79 °FFog.3 mph74%29.86 "Hg3 mi
3:20 AM77 °FFog.3 mph79%29.86 "Hg3 mi
2:50 AM79 °FFog.3 mph74%29.86 "Hg3 mi
2:20 AM79 °FPassing clouds.No wind74%29.86 "Hg4 mi
1:50 AM79 °FPassing clouds.No wind74%29.86 "HgN/A
1:20 AM79 °FPassing clouds.1 mph74%29.86 "HgN/A
12:50 AM79 °FPassing clouds.3 mph79%29.86 "HgN/A
12:20 AM79 °FPassing clouds.3 mph79%29.86 "HgN/A
11:50 PM
Aug 19
79 °FPassing clouds.2 mph79%29.86 "HgN/A
11:20 PM77 °FPassing clouds.5 mph83%29.86 "HgN/A
10:50 PM79 °FPassing clouds.5 mph79%29.86 "HgN/A
10:20 PM79 °FPassing clouds.5 mph79%29.86 "HgN/A
9:50 PM79 °FPassing clouds.3 mph79%29.86 "HgN/A
9:20 PM79 °FPassing clouds.3 mph79%29.86 "HgN/A
8:50 PM81 °FPassing clouds.5 mph74%29.83 "HgN/A
8:20 PM81 °FScattered clouds.5 mph74%29.83 "HgN/A
Weather by CustomWeather, © 2014

See weather overviewHow to use our weather pages